Location: Clermont
(50.2608°N, 4.3172°E)
Time: 16:06:09
(UTC+00:00)

MetOp-B - Pass Details

Date: 13 August 2020
Orbit: 818 x 822 km, 98.7° (Epoch: 19 September)

Event Time Altitude Azimuth Distance (km) Brightness Sun altitude
Exits shadow 20:22:38 10° 161° (SSE) 2,408 6.1 -11.4°
Maximum altitude 20:27:58 86° 73° (ENE) 831 4.1 -12.1°
Drops below altitude 10° 20:33:22 10° 346° (NNW) 2,431 7.5 -12.7°
Sets 20:35:44 0° 346° (NNW) 3,368 8.3 -13.0°
